When you browse on this site, cookies collect data to enhance your experience and personalize the content and advertising you see.
Visit our Privacy Policy to learn more. By continuing to use the site, you agree to this use of cookies and data.
  • In Denmark
  • List of Countries
  • For 7 days
  • Water Temperature
  • Satellite Maps
  • Weather Map
  • Weather Widgets
  • user-avatar
    Login

    Hourly Weather Srednie Rostoki

    Today, 20 May, Monday

    Time Temperature Precipitation Wind Pressure Humidity
    00:00 +13°C° 0 mm 2 mps 751 mmHg 81%
    01:00 +13°C° 0 mm 2 mps 752 mmHg 82%
    02:00 +12°C° 0 mm 1 mps 751 mmHg 83%
    03:00 +12°C° 0 mm 1 mps 752 mmHg 83%
    04:00 +12°C° 0 mm 1 mps 752 mmHg 82%
    05:00 +13°C° 0 mm 1 mps 752 mmHg 81%
    06:00 +15°C° 0 mm 1 mps 752 mmHg 76%
    07:00 +16°C° 0 mm 1 mps 752 mmHg 70%
    08:00 +20°C° 0 mm 1 mps 753 mmHg 67%
    09:00 +20°C° 0.2 mm 2 mps 753 mmHg 64%
    10:00 +21°C° 0.2 mm 2 mps 753 mmHg 61%
    11:00 +23°C° 0.2 mm 2 mps 753 mmHg 59%
    12:00 +23°C° 0.1 mm 2 mps 752 mmHg 56%
    13:00 +24°C° 0.1 mm 2 mps 752 mmHg 53%
    14:00 +24°C° 0.1 mm 2 mps 752 mmHg 51%
    15:00 +24°C° 0 mm 2 mps 752 mmHg 55%
    16:00 +24°C° 0 mm 2 mps 752 mmHg 60%
    17:00 +23°C° 0 mm 2 mps 751 mmHg 64%
    18:00 +20°C° 0.1 mm 2 mps 752 mmHg 70%
    19:00 +18°C° 0.1 mm 2 mps 752 mmHg 75%
    20:00 +16°C° 0.1 mm 2 mps 752 mmHg 81%
    21:00 +16°C° 0 mm 2 mps 752 mmHg 83%
    22:00 +15°C° 0 mm 2 mps 752 mmHg 85%
    23:00 +14°C° 0 mm 2 mps 752 mmHg 87%

    Tomorrow, 21 May, Tuesday

    Time Temperature Precipitation Wind Pressure Humidity
    00:00 +14°C° 0 mm 2 mps 752 mmHg 88%
    01:00 +14°C° 0 mm 2 mps 753 mmHg 89%
    02:00 +13°C° 0 mm 2 mps 753 mmHg 90%
    03:00 +13°C° 0 mm 2 mps 753 mmHg 90%
    04:00 +14°C° 0 mm 2 mps 753 mmHg 90%
    05:00 +14°C° 0 mm 2 mps 753 mmHg 90%
    06:00 +16°C° 0 mm 2 mps 753 mmHg 85%
    07:00 +17°C° 0 mm 2 mps 753 mmHg 79%
    08:00 +19°C° 0 mm 2 mps 753 mmHg 74%
    09:00 +20°C° 0.1 mm 3 mps 752 mmHg 71%
    10:00 +21°C° 0.1 mm 3 mps 752 mmHg 67%
    11:00 +22°C° 0.1 mm 3 mps 752 mmHg 64%
    12:00 +22°C° 0.5 mm 4 mps 752 mmHg 64%
    13:00 +22°C° 0.5 mm 4 mps 751 mmHg 64%
    14:00 +22°C° 0.5 mm 4 mps 751 mmHg 64%
    15:00 +22°C° 0.1 mm 4 mps 751 mmHg 66%
    16:00 +22°C° 0.1 mm 3 mps 750 mmHg 69%
    17:00 +22°C° 0.1 mm 3 mps 750 mmHg 71%
    18:00 +20°C° 0 mm 3 mps 750 mmHg 75%
    19:00 +18°C° 0 mm 3 mps 750 mmHg 79%
    20:00 +16°C° 0 mm 3 mps 750 mmHg 83%
    21:00 +16°C° 0 mm 3 mps 750 mmHg 85%
    22:00 +14°C° 0 mm 3 mps 750 mmHg 86%
    23:00 +13°C° 0 mm 3 mps 750 mmHg 87%

    Day after tomorrow, 22 May, Wednesday

    Time Temperature Precipitation Wind Pressure Humidity
    00:00 +12°C° 0 mm 3 mps 749 mmHg 87%
    01:00 +12°C° 0 mm 3 mps 749 mmHg 87%
    02:00 +11°C° 0 mm 3 mps 749 mmHg 86%
    03:00 +13°C° 0 mm 2 mps 749 mmHg 86%
    04:00 +13°C° 0 mm 2 mps 749 mmHg 86%
    05:00 +13°C° 0 mm 2 mps 748 mmHg 86%
    06:00 +15°C° 0 mm 2 mps 748 mmHg 82%
    07:00 +17°C° 0 mm 2 mps 748 mmHg 77%
    08:00 +19°C° 0 mm 2 mps 748 mmHg 73%
    09:00 +20°C° 0 mm 3 mps 748 mmHg 70%
    10:00 +21°C° 0 mm 3 mps 747 mmHg 66%
    11:00 +22°C° 0 mm 4 mps 747 mmHg 63%
    12:00 +22°C° 0 mm 4 mps 747 mmHg 63%
    13:00 +23°C° 0 mm 4 mps 746 mmHg 62%
    14:00 +23°C° 0 mm 4 mps 746 mmHg 62%
    15:00 +23°C° 0.1 mm 4 mps 746 mmHg 65%
    16:00 +22°C° 0.1 mm 4 mps 745 mmHg 68%
    17:00 +22°C° 0.1 mm 3 mps 745 mmHg 72%
    18:00 +21°C° 0 mm 3 mps 745 mmHg 76%
    19:00 +19°C° 0 mm 3 mps 745 mmHg 81%
    20:00 +17°C° 0 mm 3 mps 745 mmHg 86%
    21:00 +17°C° 0 mm 3 mps 745 mmHg 87%
    22:00 +16°C° 0 mm 3 mps 745 mmHg 88%
    23:00 +14°C° 0 mm 3 mps 745 mmHg 89%

    23 May, Thursday

    Time Temperature Precipitation Wind Pressure Humidity
    00:00 +14°C° 0 mm 3 mps 744 mmHg 89%
    01:00 +13°C° 0 mm 3 mps 744 mmHg 90%
    02:00 +13°C° 0 mm 3 mps 744 mmHg 90%
    03:00 +13°C° 0.1 mm 3 mps 744 mmHg 90%
    04:00 +13°C° 0.1 mm 3 mps 744 mmHg 90%
    05:00 +14°C° 0.1 mm 3 mps 744 mmHg 90%
    06:00 +16°C° 0 mm 3 mps 744 mmHg 87%
    07:00 +18°C° 0 mm 3 mps 744 mmHg 83%
    08:00 +20°C° 0 mm 3 mps 744 mmHg 80%
    09:00 +21°C° 0.2 mm 3 mps 744 mmHg 76%
    10:00 +22°C° 0.2 mm 4 mps 743 mmHg 72%
    11:00 +23°C° 0.2 mm 4 mps 743 mmHg 68%
    12:00 +25°C° 0.5 mm 4 mps 743 mmHg 67%
    13:00 +25°C° 0.5 mm 4 mps 743 mmHg 66%
    14:00 +25°C° 0.5 mm 4 mps 743 mmHg 66%
    15:00 +25°C° 0.3 mm 4 mps 743 mmHg 69%
    16:00 +25°C° 0.3 mm 3 mps 742 mmHg 72%
    17:00 +24°C° 0.3 mm 2 mps 742 mmHg 75%
    18:00 +23°C° 0.7 mm 2 mps 742 mmHg 78%
    19:00 +20°C° 0.7 mm 2 mps 742 mmHg 81%
    20:00 +19°C° 0.7 mm 2 mps 743 mmHg 85%
    21:00 +18°C° 0.1 mm 2 mps 743 mmHg 86%
    22:00 +17°C° 0.1 mm 2 mps 743 mmHg 88%
    23:00 +17°C° 0.1 mm 2 mps 743 mmHg 89%

    24 May, Friday

    Time Temperature Precipitation Wind Pressure Humidity
    00:00 +18°C° 0 mm 1 mps 743 mmHg 90%
    01:00 +16°C° 0 mm 1 mps 743 mmHg 90%
    02:00 +16°C° 0 mm 1 mps 743 mmHg 91%
    03:00 +16°C° 0 mm 1 mps 743 mmHg 91%
    04:00 +16°C° 0 mm 1 mps 743 mmHg 91%
    05:00 +18°C° 0 mm 1 mps 743 mmHg 91%
    06:00 +19°C° 0.1 mm 1 mps 743 mmHg 86%
    07:00 +21°C° 0.1 mm 1 mps 743 mmHg 81%
    08:00 +22°C° 0.1 mm 1 mps 743 mmHg 76%
    09:00 +23°C° 1.8 mm 2 mps 743 mmHg 74%
    10:00 +23°C° 1.8 mm 2 mps 743 mmHg 71%
    11:00 +24°C° 1.8 mm 2 mps 743 mmHg 69%
    12:00 +24°C° 0.4 mm 2 mps 742 mmHg 68%
    13:00 +24°C° 0.4 mm 2 mps 742 mmHg 67%
    14:00 +24°C° 0.4 mm 2 mps 742 mmHg 66%
    15:00 +24°C° 0 mm 2 mps 742 mmHg 68%
    16:00 +24°C° 0 mm 2 mps 742 mmHg 70%
    17:00 +23°C° 0 mm 2 mps 742 mmHg 72%
    18:00 +21°C° 0 mm 2 mps 742 mmHg 77%
    19:00 +19°C° 0 mm 2 mps 742 mmHg 82%
    20:00 +18°C° 0 mm 2 mps 741 mmHg 86%
    21:00 +17°C° 1.2 mm 2 mps 741 mmHg 88%
    22:00 +17°C° 1.2 mm 2 mps 741 mmHg 90%
    23:00 +16°C° 1.2 mm 2 mps 741 mmHg 93%

    25 May, Saturday

    Time Temperature Precipitation Wind Pressure Humidity
    00:00 +16°C° 0.1 mm 2 mps 741 mmHg 93%
    01:00 +15°C° 0.1 mm 2 mps 741 mmHg 93%
    02:00 +15°C° 0.1 mm 2 mps 741 mmHg 93%
    03:00 +15°C° 0 mm 2 mps 741 mmHg 92%
    04:00 +16°C° 0 mm 2 mps 741 mmHg 92%
    05:00 +16°C° 0 mm 2 mps 741 mmHg 91%
    06:00 +18°C° 0 mm 2 mps 741 mmHg 86%
    07:00 +19°C° 0 mm 2 mps 741 mmHg 81%
    08:00 +21°C° 0 mm 2 mps 741 mmHg 76%
    09:00 +22°C° 0.1 mm 3 mps 741 mmHg 71%
    10:00 +24°C° 0.1 mm 3 mps 741 mmHg 66%
    11:00 +25°C° 0.1 mm 3 mps 740 mmHg 61%
    12:00 +25°C° 0.1 mm 3 mps 740 mmHg 60%
    13:00 +26°C° 0.1 mm 3 mps 740 mmHg 58%
    14:00 +26°C° 0.1 mm 2 mps 740 mmHg 57%
    15:00 +26°C° 0.3 mm 2 mps 740 mmHg 61%
    16:00 +25°C° 0.3 mm 2 mps 739 mmHg 65%
    17:00 +25°C° 0.3 mm 2 mps 739 mmHg 69%
    18:00 +23°C° 0.1 mm 2 mps 739 mmHg 72%
    19:00 +21°C° 0.1 mm 1 mps 739 mmHg 75%
    20:00 +19°C° 0.1 mm 1 mps 739 mmHg 79%
    21:00 +19°C° 0 mm 1 mps 739 mmHg 80%
    22:00 +18°C° 0 mm 1 mps 739 mmHg 82%
    23:00 +15°C° 0 mm 0 mps 738 mmHg 84%
    Show more